Home > Weather > Salt Lake City > Past weeks

Flag for USA Past Weather in Salt Lake City, Utah, USA — Yesterday and Last 2 Weeks

Now
98 °F

Scattered clouds.


Feels Like: 93 °F
Forecast: 71 / 99 °F
Wind: 14 mph from South

Location: Salt Lake City International Airport

Current Time: Jun 28, 2016 at 12:57:44 PM

Latest Report: Jun 28, 2016 at 11:54 AM


Visibility: 10 mi

Pressure: 29.89 "Hg (25.87 "Hg at 1312m altitude)

Humidity: 9%

Dew Point: 29 °F

Location of Salt Lake CityLocation

Past Weather in Salt Lake City — Graph

°F

Salt Lake City Temperature Yesterday

Maximum temperature yesterday: 100 °F (at 3:54 PM)
Minimum temperature yesterday: 65 °F (at 4:54 AM)
Average temperature yesterday: 85 °F

High & Low Weather Summary for the Past Weeks

 TemperatureHumidityPressure
High100 °F (Jun 27, 3:54 PM)78% (Jun 13, 1:54 PM)30.12 "Hg (Jun 13, 1:54 PM)
Low56 °F (Jun 16, 5:54 AM)6% (Jun 18, 4:54 PM)29.45 "Hg (Jun 15, 6:54 PM)
Average78 °F28%29.87 "Hg
* Reported Jun 13 10:54 AM — Jun 28 10:54 AM, Salt Lake City, Weather by CustomWeather, © 2016

Note: Actual official high and low records may vary slightly from our data, if they occured in-between our weather recording intervals... More about our weather records

Advertising

Salt Lake City Weather History for the Previous 24 Hours

Scroll right to see more
 ConditionsComfort  
Time TempWeatherWind HumidityBarometerVisibility
10:54 AM
Tue, Jun 28
93 °FScattered clouds.10 mph14%29.90 "Hg10 mi
9:54 AM89 °FScattered clouds.12 mph16%29.91 "Hg10 mi
8:54 AM84 °FScattered clouds.10 mph22%29.91 "Hg10 mi
7:54 AM80 °FScattered clouds.8 mph25%29.90 "Hg10 mi
6:54 AM77 °FPassing clouds.13 mph26%29.90 "Hg10 mi
5:54 AM74 °FPassing clouds.9 mph29%29.89 "Hg10 mi
4:54 AM76 °FPassing clouds.8 mph27%29.88 "Hg10 mi
3:54 AM75 °FPassing clouds.8 mph28%29.88 "Hg10 mi
2:54 AM80 °FPassing clouds.10 mph21%29.87 "Hg10 mi
1:54 AM79 °FPassing clouds.8 mph24%29.87 "Hg10 mi
12:54 AM82 °FPassing clouds.9 mph18%29.87 "Hg10 mi
11:54 PM
Mon, Jun 27
83 °FPassing clouds.7 mph19%29.88 "Hg10 mi
10:54 PM84 °FPassing clouds.9 mph19%29.89 "Hg10 mi
9:54 PM87 °FPassing clouds.6 mph14%29.89 "Hg10 mi
8:54 PM93 °FPassing clouds.3 mph12%29.88 "Hg10 mi
7:54 PM98 °FPassing clouds.7 mph9%29.88 "Hg10 mi
6:54 PM99 °FPassing clouds.5 mph9%29.90 "Hg10 mi
5:54 PM100 °FPassing clouds.9 mph10%29.91 "Hg10 mi
4:54 PM100 °FPassing clouds.10 mph10%29.92 "Hg10 mi
3:54 PM100 °FPassing clouds.7 mph10%29.93 "Hg10 mi
2:54 PM99 °FPassing clouds.6 mph8%29.95 "Hg10 mi
1:54 PM97 °FPassing clouds.6 mph9%29.98 "Hg10 mi
12:54 PM95 °FPassing clouds.5 mph11%29.99 "Hg10 mi
Weather by CustomWeather, © 2016

See weather overviewHow to use our weather pages